Location: Roanoke
(37.2710°N, 79.9420°W)
Time: 22:16:38
(UTC-04:00)

Cosmos 1441 Rocket - Visible Passes

Search period start: 02 September 2014 00:00
Search period end: 12 September 2014 00:00
Orbit: 508 x 558 km, 81.1° (Epoch: 02 September)

Date Brightness Start Highest point End Pass type
(mag) Time Alt. Az. Time Alt. Az. Time Alt. Az.
02 Sep 5.4 21:15:43 10° SW 21:19:10 29° WNW 21:22:35 10° NNW visible
03 Sep 5.4 21:06:07 10° SW 21:09:34 29° WNW 21:13:01 10° NNW visible
04 Sep 5.3 20:56:30 10° SW 20:59:59 30° WNW 21:03:26 10° NNW visible
05 Sep 5.3 20:46:53 10° SW 20:50:23 31° WNW 20:53:52 10° NNW visible
06 Sep 5.3 20:37:16 10° SW 20:40:47 32° WNW 20:44:17 10° NNW visible
07 Sep 5.3 20:27:39 10° SW 20:31:11 33° WNW 20:34:42 10° NNW visible
08 Sep 5.2 06:26:46 10° N 06:30:16 34° ENE 06:33:46 10° SE visible
08 Sep 5.2 20:18:01 10° SW 20:21:34 34° WNW 20:25:06 10° N visible
09 Sep 5.3 06:17:11 10° N 06:20:40 33° ENE 06:24:08 10° SE visible
09 Sep 5.2 20:08:24 10° SW 20:11:58 35° WNW 20:15:31 10° N visible
10 Sep 5.3 06:07:36 10° NNE 06:11:03 32° ENE 06:14:30 10° SE visible
10 Sep 5.2 19:58:46 10° SW 20:02:21 36° WNW 20:05:55 10° N visible
11 Sep 5.3 05:58:00 10° NNE 06:01:26 31° ENE 06:04:52 10° SE visible
